Time,TemperatureF,DewpointF,PressureIn,WindDirection,WindDirectionDegrees,WindSpeedMPH,WindSpeedGustMPH,Humidity,HourlyPrecipIn,Conditions,Clouds,dailyrainin,SoftwareType,DateUTC
2013-06-25 00:04:00,67.0,66.9,29.32,NE,45,0.0,1.3,100,-99.99,,,-99.99,WSDL version 423,2013-06-25 04:04:00,
2013-06-25 00:09:00,67.1,67.1,29.32,NNE,33,0.0,0.9,100,-99.99,,,-99.99,WSDL version 423,2013-06-25 04:09:00,
2013-06-25 00:14:00,67.1,67.1,29.32,North,355,0.7,2.5,100,-99.99,,,-99.99,WSDL version 423,2013-06-25 04:14:00,
2013-06-25 00:19:00,66.9,66.9,29.32,North,358,2.1,3.1,100,-99.99,,,-99.99,WSDL version 423,2013-06-25 04:19:00,
2013-06-25 00:24:00,66.4,66.3,29.32,North,5,2.3,3.1,100,-99.99,,,-99.99,WSDL version 423,2013-06-25 04:24:00,
2013-06-25 00:29:00,65.9,65.9,29.32,North,358,1.1,2.9,100,-99.99,,,-99.99,WSDL version 423,2013-06-25 04:29:00,
2013-06-25 00:34:00,65.8,65.8,29.32,ENE,73,0.0,2.5,100,-99.99,,,-99.99,WSDL version 423,2013-06-25 04:34:00,
2013-06-25 00:39:00,65.9,65.9,29.29,NE,37,0.0,1.6,100,-99.99,,,-99.99,WSDL version 423,2013-06-25 04:39:00,
2013-06-25 00:44:00,66.3,66.3,29.29,NNE,23,0.1,2.5,100,-99.99,,,-99.99,WSDL version 423,2013-06-25 04:44:00,
2013-06-25 00:49:00,66.6,66.6,29.29,NW,315,0.6,2.5,100,-99.99,,,-99.99,WSDL version 423,2013-06-25 04:49:00,
2013-06-25 00:54:00,66.6,66.6,29.29,North,355,0.0,2.0,100,-99.99,,,-99.99,WSDL version 423,2013-06-25 04:54:00,
2013-06-25 00:59:00,66.5,66.5,29.29,North,360,0.0,1.6,100,-99.99,,,-99.99,WSDL version 423,2013-06-25 04:59:00,
2013-06-25 01:04:00,66.4,66.4,29.29,NNW,338,0.0,0.0,100,-99.99,,,-99.99,WSDL version 423,2013-06-25 05:04:00,
2013-06-25 01:09:00,66.4,66.4,29.32,NNW,338,0.0,0.0,100,-99.99,,,-99.99,WSDL version 423,2013-06-25 05:09:00,
2013-06-25 01:14:00,66.2,66.2,29.32,NNW,338,0.0,0.0,100,-99.99,,,-99.99,WSDL version 423,2013-06-25 05:14:00,
2013-06-25 01:19:00,66.1,66.1,29.32,NNW,338,0.0,0.0,100,-99.99,,,-99.99,WSDL version 423,2013-06-25 05:19:00,
2013-06-25 01:24:00,66.0,66.0,29.29,NNW,338,0.0,0.0,100,-99.99,,,-99.99,WSDL version 423,2013-06-25 05:24:00,
2013-06-25 01:29:00,66.2,66.2,29.29,NNW,338,0.0,0.0,100,-99.99,,,-99.99,WSDL version 423,2013-06-25 05:29:00,
2013-06-25 01:34:00,66.3,66.3,29.29,NW,323,0.2,2.5,100,-99.99,,,-99.99,WSDL version 423,2013-06-25 05:34:00,
2013-06-25 01:39:00,66.4,66.4,29.29,WSW,248,0.0,2.5,100,-99.99,,,-99.99,WSDL version 423,2013-06-25 05:39:00,
2013-06-25 01:44:00,66.3,66.3,29.29,NW,315,0.0,1.6,100,-99.99,,,-99.99,WSDL version 423,2013-06-25 05:44:00,
2013-06-25 01:49:00,66.4,66.4,29.29,NW,315,0.0,0.0,100,-99.99,,,-99.99,WSDL version 423,2013-06-25 05:49:00,
2013-06-25 01:54:00,66.6,66.6,29.29,NW,315,0.0,0.0,100,-99.99,,,-99.99,WSDL version 423,2013-06-25 05:54:00,
2013-06-25 01:59:00,66.7,66.7,29.29,NW,315,0.0,0.0,100,-99.99,,,-99.99,WSDL version 423,2013-06-25 05:59:00,
2013-06-25 02:04:00,66.4,66.4,29.29,WNW,293,0.0,0.0,100,-99.99,,,-99.99,WSDL version 423,2013-06-25 06:04:00,
2013-06-25 02:09:00,66.2,66.2,29.29,NNW,338,0.4,1.3,100,-99.99,,,-99.99,WSDL version 423,2013-06-25 06:09:00,
2013-06-25 02:14:00,66.1,66.1,29.29,NNW,345,1.2,2.0,100,-99.99,,,-99.99,WSDL version 423,2013-06-25 06:14:00,
2013-06-25 02:19:00,65.9,65.9,29.29,NNE,15,0.1,2.5,100,-99.99,,,-99.99,WSDL version 423,2013-06-25 06:19:00,
2013-06-25 02:24:00,65.7,65.7,29.29,North,355,0.0,2.5,100,-99.99,,,-99.99,WSDL version 423,2013-06-25 06:24:00,
2013-06-25 02:29:00,65.6,65.6,29.29,NNW,338,0.0,2.0,100,-99.99,,,-99.99,WSDL version 423,2013-06-25 06:29:00,
2013-06-25 02:34:00,65.4,65.4,29.29,NNW,338,0.0,1.6,100,-99.99,,,-99.99,WSDL version 423,2013-06-25 06:34:00,
2013-06-25 02:39:00,65.2,65.2,29.29,NNW,340,0.5,1.6,100,-99.99,,,-99.99,WSDL version 423,2013-06-25 06:39:00,
2013-06-25 02:44:00,65.0,65.0,29.29,NNW,343,1.2,2.7,100,-99.99,,,-99.99,WSDL version 423,2013-06-25 06:44:00,
2013-06-25 02:49:00,64.8,64.8,29.29,North,360,0.0,2.7,100,-99.99,,,-99.99,WSDL version 423,2013-06-25 06:49:00,
2013-06-25 02:54:00,64.8,64.8,29.29,NNW,340,0.0,2.2,100,-99.99,,,-99.99,WSDL version 423,2013-06-25 06:54:00,
2013-06-25 02:59:00,64.6,64.6,29.29,NNW,340,0.6,2.2,100,-99.99,,,-99.99,WSDL version 423,2013-06-25 06:59:00,
2013-06-25 03:04:00,64.4,64.4,29.29,NE,40,0.0,1.6,100,-99.99,,,-99.99,WSDL version 423,2013-06-25 07:04:00,
2013-06-25 03:09:00,64.4,64.4,29.29,NNE,14,0.4,2.2,100,-99.99,,,-99.99,WSDL version 423,2013-06-25 07:09:00,
2013-06-25 03:14:00,64.3,64.3,29.29,North,360,0.0,2.2,100,-99.99,,,-99.99,WSDL version 423,2013-06-25 07:14:00,
2013-06-25 03:19:00,64.2,64.2,29.29,North,360,0.0,0.0,100,-99.99,,,-99.99,WSDL version 423,2013-06-25 07:19:00,
2013-06-25 03:24:00,64.2,64.2,29.29,NNE,23,0.0,0.0,100,-99.99,,,-99.99,WSDL version 423,2013-06-25 07:24:00,
2013-06-25 03:29:00,64.0,64.0,29.29,NNE,19,0.0,1.1,100,-99.99,,,-99.99,WSDL version 423,2013-06-25 07:29:00,
2013-06-25 03:34:00,64.0,64.0,29.29,North,360,0.0,1.6,100,-99.99,,,-99.99,WSDL version 423,2013-06-25 07:34:00,
2013-06-25 03:39:00,64.0,64.0,29.29,NNE,23,0.0,1.6,100,-99.99,,,-99.99,WSDL version 423,2013-06-25 07:39:00,
2013-06-25 03:44:00,64.0,64.0,29.29,NNE,23,0.0,0.0,100,-99.99,,,-99.99,WSDL version 423,2013-06-25 07:44:00,
2013-06-25 03:49:00,63.9,63.9,29.29,NNW,338,0.1,2.2,100,-99.99,,,-99.99,WSDL version 423,2013-06-25 07:49:00,
2013-06-25 03:59:00,64.0,64.0,29.29,North,360,0.0,0.9,100,-99.99,,,-99.99,WSDL version 423,2013-06-25 07:59:00,
2013-06-25 04:04:00,64.0,64.0,29.29,North,360,0.0,0.0,100,-99.99,,,-99.99,WSDL version 423,2013-06-25 08:04:00,
2013-06-25 04:09:00,64.0,64.0,29.29,SSE,153,0.0,1.3,100,-99.99,,,-99.99,WSDL version 423,2013-06-25 08:09:00,
2013-06-25 04:14:00,64.2,64.2,29.29,South,180,0.0,1.3,100,-99.99,,,-99.99,WSDL version 423,2013-06-25 08:14:00,
2013-06-25 04:19:00,64.0,64.0,29.29,South,180,0.0,0.0,100,-99.99,,,-99.99,WSDL version 423,2013-06-25 08:19:00,
2013-06-25 04:24:00,64.0,63.9,29.29,South,180,0.0,0.0,100,-99.99,,,-99.99,WSDL version 423,2013-06-25 08:24:00,
2013-06-25 04:29:00,63.9,63.9,29.29,SE,135,0.0,0.0,100,-99.99,,,-99.99,WSDL version 423,2013-06-25 08:29:00,
2013-06-25 04:34:00,63.8,63.8,29.29,ESE,113,0.0,0.0,100,-99.99,,,-99.99,WSDL version 423,2013-06-25 08:34:00,
2013-06-25 04:39:00,63.7,63.7,29.29,NE,45,0.0,0.0,100,-99.99,,,-99.99,WSDL version 423,2013-06-25 08:39:00,
2013-06-25 04:44:00,63.7,63.7,29.29,NE,45,0.0,0.0,100,-99.99,,,-99.99,WSDL version 423,2013-06-25 08:44:00,
2013-06-25 04:49:00,63.7,63.7,29.29,NNE,13,0.1,1.3,100,-99.99,,,-99.99,WSDL version 423,2013-06-25 08:49:00,
2013-06-25 04:54:00,63.5,63.5,29.29,North,352,1.9,2.5,100,-99.99,,,-99.99,WSDL version 423,2013-06-25 08:54:00,
2013-06-25 04:59:00,63.4,63.3,29.29,North,360,1.5,2.7,100,-99.99,,,-99.99,WSDL version 423,2013-06-25 08:59:00,
2013-06-25 05:04:00,63.2,63.2,29.29,NNW,343,1.3,2.7,100,-99.99,,,-99.99,WSDL version 423,2013-06-25 09:04:00,
2013-06-25 05:09:00,63.2,63.2,29.29,North,357,1.0,2.7,100,-99.99,,,-99.99,WSDL version 423,2013-06-25 09:09:00,
2013-06-25 05:14:00,63.5,63.5,29.29,North,360,0.0,2.7,100,-99.99,,,-99.99,WSDL version 423,2013-06-25 09:14:00,
2013-06-25 05:19:00,63.7,63.7,29.29,North,8,1.2,2.5,100,-99.99,,,-99.99,WSDL version 423,2013-06-25 09:19:00,
2013-06-25 05:24:00,63.8,63.8,29.29,NNE,25,0.0,2.5,100,-99.99,,,-99.99,WSDL version 423,2013-06-25 09:24:00,
2013-06-25 05:29:00,63.9,63.9,29.29,North,360,1.0,2.0,100,-99.99,,,-99.99,WSDL version 423,2013-06-25 09:29:00,
2013-06-25 05:34:00,63.9,63.9,29.29,North,360,0.5,2.0,100,-99.99,,,-99.99,WSDL version 423,2013-06-25 09:34:00,
2013-06-25 05:39:00,63.9,63.9,29.29,North,360,0.5,2.0,100,-99.99,,,-99.99,WSDL version 423,2013-06-25 09:39:00,
2013-06-25 05:44:00,64.0,64.0,29.29,North,360,0.0,2.0,100,-99.99,,,-99.99,WSDL version 423,2013-06-25 09:44:00,
2013-06-25 05:49:00,64.2,64.2,29.29,North,354,1.1,1.6,100,-99.99,,,-99.99,WSDL version 423,2013-06-25 09:49:00,
2013-06-25 05:54:00,64.3,64.2,29.29,North,360,0.6,1.6,100,-99.99,,,-99.99,WSDL version 423,2013-06-25 09:54:00,
2013-06-25 05:59:00,64.6,64.6,29.29,North,360,0.0,1.3,100,-99.99,,,-99.99,WSDL version 423,2013-06-25 09:59:00,
2013-06-25 06:04:00,64.8,64.8,29.29,North,352,0.0,1.6,100,-99.99,,,-99.99,WSDL version 423,2013-06-25 10:04:00,
2013-06-25 06:09:00,64.9,64.9,29.29,North,10,0.1,2.0,100,-99.99,,,-99.99,WSDL version 423,2013-06-25 10:09:00,
2013-06-25 06:14:00,64.9,64.9,29.29,North,360,0.0,2.0,100,-99.99,,,-99.99,WSDL version 423,2013-06-25 10:14:00,
2013-06-25 06:19:00,64.8,64.8,29.29,North,360,0.4,1.3,100,-99.99,,,-99.99,WSDL version 423,2013-06-25 10:19:00,
2013-06-25 06:24:00,64.8,64.8,29.29,North,360,0.0,1.3,100,-99.99,,,-99.99,WSDL version 423,2013-06-25 10:24:00,
2013-06-25 06:29:00,64.9,64.9,29.29,NNW,338,1.3,2.2,100,-99.99,,,-99.99,WSDL version 423,2013-06-25 10:29:00,
2013-06-25 06:34:00,65.0,65.0,29.29,NNW,338,0.5,2.2,100,-99.99,,,-99.99,WSDL version 423,2013-06-25 10:34:00,
2013-06-25 06:39:00,65.2,65.1,29.29,NNW,338,0.7,1.6,100,-99.99,,,-99.99,WSDL version 423,2013-06-25 10:39:00,
2013-06-25 06:44:00,65.6,65.6,29.29,North,360,0.0,1.6,100,-99.99,,,-99.99,WSDL version 423,2013-06-25 10:44:00,
2013-06-25 06:49:00,66.0,66.0,29.29,North,360,0.5,1.6,100,-99.99,,,-99.99,WSDL version 423,2013-06-25 10:49:00,
2013-06-25 06:54:00,66.8,66.8,29.29,North,360,0.4,1.6,100,-99.99,,,-99.99,WSDL version 423,2013-06-25 10:54:00,
2013-06-25 06:59:00,68.4,68.4,29.29,North,360,0.3,1.6,100,-99.99,,,-99.99,WSDL version 423,2013-06-25 10:59:00,
2013-06-25 07:04:00,69.8,69.8,29.29,North,360,0.0,1.6,100,-99.99,,,-99.99,WSDL version 423,2013-06-25 11:04:00,
2013-06-25 07:09:00,71.5,71.5,29.29,North,360,0.0,0.0,100,-99.99,,,-99.99,WSDL version 423,2013-06-25 11:09:00,
2013-06-25 07:14:00,73.0,73.0,29.29,North,360,0.0,0.0,100,-99.99,,,-99.99,WSDL version 423,2013-06-25 11:14:00,
2013-06-25 07:19:00,74.1,74.1,29.29,North,360,0.0,0.0,100,-99.99,,,-99.99,WSDL version 423,2013-06-25 11:19:00,
2013-06-25 07:24:00,75.2,75.2,29.29,North,360,0.0,0.0,100,-99.99,,,-99.99,WSDL version 423,2013-06-25 11:24:00,
2013-06-25 07:29:00,76.7,76.7,29.29,NNW,346,0.6,2.2,100,-99.99,,,-99.99,WSDL version 423,2013-06-25 11:29:00,
2013-06-25 07:34:00,77.3,77.3,29.29,North,360,0.0,2.2,100,-99.99,,,-99.99,WSDL version 423,2013-06-25 11:34:00,
2013-06-25 07:39:00,77.9,77.6,29.29,North,360,0.0,1.6,98,-99.99,,,-99.99,WSDL version 423,2013-06-25 11:39:00,
2013-06-25 07:44:00,79.6,78.7,29.29,North,360,0.0,0.0,97,-99.99,,,-99.99,WSDL version 423,2013-06-25 11:44:00,
2013-06-25 07:49:00,80.8,78.8,29.29,North,360,0.0,0.0,91,-99.99,,,-99.99,WSDL version 423,2013-06-25 11:49:00,
2013-06-25 07:54:00,80.5,76.7,29.29,North,360,0.0,0.0,86,-99.99,,,-99.99,WSDL version 423,2013-06-25 11:54:00,
2013-06-25 07:59:00,80.3,76.2,29.29,NW,315,0.0,1.3,86,-99.99,,,-99.99,WSDL version 423,2013-06-25 11:59:00,
2013-06-25 08:04:00,80.1,75.3,29.29,WNW,293,0.0,1.3,84,-99.99,,,-99.99,WSDL version 423,2013-06-25 12:04:00,
2013-06-25 08:09:00,80.3,74.9,29.29,ESE,109,0.0,1.3,83,-99.99,,,-99.99,WSDL version 423,2013-06-25 12:09:00,
2013-06-25 08:14:00,81.2,75.1,29.29,SSE,153,0.5,2.2,82,-99.99,,,-99.99,WSDL version 423,2013-06-25 12:14:00,
2013-06-25 08:19:00,81.4,74.8,29.29,ESE,113,0.4,2.2,79,-99.99,,,-99.99,WSDL version 423,2013-06-25 12:19:00,
2013-06-25 08:24:00,80.7,73.2,29.29,ESE,113,0.0,1.6,78,-99.99,,,-99.99,WSDL version 423,2013-06-25 12:24:00,
2013-06-25 08:29:00,80.2,72.7,29.29,ESE,113,0.0,0.0,78,-99.99,,,-99.99,WSDL version 423,2013-06-25 12:29:00,
2013-06-25 08:34:00,79.4,71.8,29.29,ESE,113,0.0,0.0,78,-99.99,,,-99.99,WSDL version 423,2013-06-25 12:34:00,
2013-06-25 08:39:00,78.7,71.6,29.26,ESE,113,0.0,0.0,79,-99.99,,,-99.99,WSDL version 423,2013-06-25 12:39:00,
2013-06-25 08:44:00,78.3,71.7,29.26,South,180,0.0,0.0,80,-99.99,,,-99.99,WSDL version 423,2013-06-25 12:44:00,
2013-06-25 08:49:00,78.3,71.7,29.26,SW,214,0.0,0.0,80,-99.99,,,-99.99,WSDL version 423,2013-06-25 12:49:00,
2013-06-25 08:54:00,78.2,71.8,29.29,SW,225,0.0,0.0,81,-99.99,,,-99.99,WSDL version 423,2013-06-25 12:54:00,
2013-06-25 08:59:00,78.4,72.1,29.29,SSW,193,0.0,0.0,81,-99.99,,,-99.99,WSDL version 423,2013-06-25 12:59:00,
2013-06-25 09:04:00,78.5,72.2,29.29,WSW,245,0.0,0.0,81,-99.99,,,-99.99,WSDL version 423,2013-06-25 13:04:00,
2013-06-25 09:09:00,78.8,72.4,29.29,SW,225,0.0,0.0,80,-99.99,,,-99.99,WSDL version 423,2013-06-25 13:09:00,
2013-06-25 09:14:00,79.0,72.3,29.29,SW,225,0.0,0.0,80,-99.99,,,-99.99,WSDL version 423,2013-06-25 13:14:00,
2013-06-25 09:19:00,79.3,72.4,29.29,SW,217,0.0,0.0,79,-99.99,,,-99.99,WSDL version 423,2013-06-25 13:19:00,
2013-06-25 09:24:00,80.3,73.2,29.29,WSW,248,0.0,1.6,80,-99.99,,,-99.99,WSDL version 423,2013-06-25 13:24:00,
2013-06-25 09:29:00,82.4,75.1,29.29,SSW,193,0.0,1.6,78,-99.99,,,-99.99,WSDL version 423,2013-06-25 13:29:00,
2013-06-25 09:34:00,82.6,74.0,29.29,SSW,203,0.0,0.9,75,-99.99,,,-99.99,WSDL version 423,2013-06-25 13:34:00,
2013-06-25 09:39:00,84.2,75.0,29.29,SW,223,0.0,0.9,74,-99.99,,,-99.99,WSDL version 423,2013-06-25 13:39:00,
2013-06-25 09:44:00,85.7,74.9,29.29,SW,225,0.0,2.2,68,-99.99,,,-99.99,WSDL version 423,2013-06-25 13:44:00,
2013-06-25 09:49:00,86.8,75.1,29.29,SSW,205,0.0,2.2,68,-99.99,,,-99.99,WSDL version 423,2013-06-25 13:49:00,
2013-06-25 09:54:00,87.0,73.0,29.29,SW,225,1.1,1.6,62,-99.99,,,-99.99,WSDL version 423,2013-06-25 13:54:00,
2013-06-25 09:59:00,87.1,72.8,29.29,SSW,203,0.4,2.0,64,-99.99,,,-99.99,WSDL version 423,2013-06-25 13:59:00,
2013-06-25 10:04:00,88.8,74.9,29.29,SW,225,0.0,2.0,63,-99.99,,,-99.99,WSDL version 423,2013-06-25 14:04:00,
2013-06-25 10:09:00,89.9,74.4,29.29,SSW,203,0.0,1.3,59,-99.99,,,-99.99,WSDL version 423,2013-06-25 14:09:00,
2013-06-25 10:14:00,90.8,74.0,29.29,SE,143,0.9,2.7,57,-99.99,,,-99.99,WSDL version 423,2013-06-25 14:14:00,
2013-06-25 10:19:00,91.5,73.3,29.29,SW,225,0.0,2.7,57,-99.99,,,-99.99,WSDL version 423,2013-06-25 14:19:00,
2013-06-25 10:24:00,93.0,73.4,29.29,SE,145,0.1,1.3,52,-99.99,,,-99.99,WSDL version 423,2013-06-25 14:24:00,
2013-06-25 10:29:00,92.8,71.9,29.29,SE,135,0.0,1.3,51,-99.99,,,-99.99,WSDL version 423,2013-06-25 14:29:00,
2013-06-25 10:34:00,92.5,70.2,29.29,SE,135,0.0,1.1,48,-99.99,,,-99.99,WSDL version 423,2013-06-25 14:34:00,
2013-06-25 10:39:00,93.5,70.9,29.29,SE,135,0.0,0.9,49,-99.99,,,-99.99,WSDL version 423,2013-06-25 14:39:00,
2013-06-25 10:44:00,93.6,69.7,29.29,SE,135,0.0,0.9,46,-99.99,,,-99.99,WSDL version 423,2013-06-25 14:44:00,
2013-06-25 10:49:00,93.3,69.3,29.29,SE,135,0.0,1.1,46,-99.99,,,-99.99,WSDL version 423,2013-06-25 14:49:00,
2013-06-25 10:54:00,93.0,69.2,29.29,SW,225,1.3,2.5,46,-99.99,,,-99.99,WSDL version 423,2013-06-25 14:54:00,
2013-06-25 10:59:00,92.9,68.4,29.29,SW,225,0.0,2.5,44,-99.99,,,-99.99,WSDL version 423,2013-06-25 14:59:00,
2013-06-25 11:04:00,92.9,68.1,29.29,SW,217,0.6,2.2,44,-99.99,,,-99.99,WSDL version 423,2013-06-25 15:04:00,
2013-06-25 11:09:00,93.1,68.0,29.29,SW,225,1.0,2.2,43,-99.99,,,-99.99,WSDL version 423,2013-06-25 15:09:00,
2013-06-25 11:14:00,94.0,68.4,29.29,SW,235,0.1,2.0,41,-99.99,,,-99.99,WSDL version 423,2013-06-25 15:14:00,
2013-06-25 11:19:00,93.8,67.0,29.29,West,270,1.1,2.2,41,-99.99,,,-99.99,WSDL version 423,2013-06-25 15:19:00,
2013-06-25 11:24:00,94.2,66.9,29.26,SW,225,1.0,2.5,41,-99.99,,,-99.99,WSDL version 423,2013-06-25 15:24:00,
2013-06-25 11:29:00,94.0,66.0,29.26,SW,228,0.7,2.7,39,-99.99,,,-99.99,WSDL version 423,2013-06-25 15:29:00,
2013-06-25 11:34:00,93.6,65.6,29.26,West,273,0.8,2.7,41,-99.99,,,-99.99,WSDL version 423,2013-06-25 15:34:00,
2013-06-25 11:39:00,93.4,66.2,29.29,SW,231,0.6,2.7,41,-99.99,,,-99.99,WSDL version 423,2013-06-25 15:39:00,
2013-06-25 11:44:00,92.2,65.3,29.29,SW,225,0.9,1.6,41,-99.99,,,-99.99,WSDL version 423,2013-06-25 15:44:00,
2013-06-25 11:49:00,91.9,65.5,29.29,SW,225,0.0,1.6,42,-99.99,,,-99.99,WSDL version 423,2013-06-25 15:49:00,
2013-06-25 11:54:00,91.9,65.8,29.29,SW,222,0.0,1.3,43,-99.99,,,-99.99,WSDL version 423,2013-06-25 15:54:00,
2013-06-25 11:59:00,91.8,65.8,29.29,SW,225,0.0,1.6,42,-99.99,,,-99.99,WSDL version 423,2013-06-25 15:59:00,
2013-06-25 12:04:00,91.9,66.0,29.29,SW,225,0.7,1.6,43,-99.99,,,-99.99,WSDL version 423,2013-06-25 16:04:00,
2013-06-25 12:09:00,91.9,65.8,29.29,SSW,210,0.4,2.7,43,-99.99,,,-99.99,WSDL version 423,2013-06-25 16:09:00,
2013-06-25 12:14:00,93.5,67.1,29.29,SW,219,0.0,2.7,42,-99.99,,,-99.99,WSDL version 423,2013-06-25 16:14:00,
2013-06-25 12:19:00,94.1,66.7,29.29,South,183,0.1,2.2,39,-99.99,,,-99.99,WSDL version 423,2013-06-25 16:19:00,
2013-06-25 12:24:00,93.1,64.1,29.26,West,278,0.0,2.2,40,-99.99,,,-99.99,WSDL version 423,2013-06-25 16:24:00,
2013-06-25 12:29:00,94.4,66.1,29.26,SW,217,0.3,2.5,40,-99.99,,,-99.99,WSDL version 423,2013-06-25 16:29:00,
2013-06-25 12:34:00,94.3,65.2,29.26,SSE,150,0.0,2.5,38,-99.99,,,-99.99,WSDL version 423,2013-06-25 16:34:00,
2013-06-25 12:39:00,92.9,64.3,29.26,ESE,113,0.4,2.0,40,-99.99,,,-99.99,WSDL version 423,2013-06-25 16:39:00,
2013-06-25 12:44:00,93.4,64.4,29.26,SW,228,0.0,1.3,38,-99.99,,,-99.99,WSDL version 423,2013-06-25 16:44:00,
2013-06-25 12:49:00,94.4,64.6,29.26,SW,225,1.7,2.5,37,-99.99,,,-99.99,WSDL version 423,2013-06-25 16:49:00,
2013-06-25 12:54:00,94.5,63.7,29.26,SW,233,0.6,2.5,36,-99.99,,,-99.99,WSDL version 423,2013-06-25 16:54:00,
2013-06-25 12:59:00,95.1,63.0,29.26,SE,135,0.4,2.2,34,-99.99,,,-99.99,WSDL version 423,2013-06-25 16:59:00,
2013-06-25 13:04:00,95.7,62.7,29.26,South,186,1.2,2.5,35,-99.99,,,-99.99,WSDL version 423,2013-06-25 17:04:00,
2013-06-25 13:09:00,96.2,64.7,29.26,South,183,1.1,2.5,36,-99.99,,,-99.99,WSDL version 423,2013-06-25 17:09:00,
2013-06-25 13:14:00,96.4,66.2,29.26,SW,222,2.1,3.8,38,-99.99,,,-99.99,WSDL version 423,2013-06-25 17:14:00,
2013-06-25 13:19:00,96.0,66.7,29.26,SW,223,1.1,3.8,39,-99.99,,,-99.99,WSDL version 423,2013-06-25 17:19:00,
2013-06-25 13:24:00,95.8,67.0,29.26,South,172,0.4,2.7,40,-99.99,,,-99.99,WSDL version 423,2013-06-25 17:24:00,
2013-06-25 13:29:00,94.4,66.4,29.26,SW,218,1.3,2.5,40,-99.99,,,-99.99,WSDL version 423,2013-06-25 17:29:00,
2013-06-25 13:34:00,92.6,64.8,29.26,South,180,1.1,2.7,40,-99.99,,,-99.99,WSDL version 423,2013-06-25 17:34:00,
2013-06-25 13:39:00,89.9,62.0,29.26,South,191,1.2,2.7,40,-99.99,,,-99.99,WSDL version 423,2013-06-25 17:39:00,
2013-06-25 13:44:00,88.5,61.7,29.26,SW,220,0.8,2.5,41,-99.99,,,-99.99,WSDL version 423,2013-06-25 17:44:00,
2013-06-25 13:49:00,87.1,61.8,29.26,SW,217,1.7,3.6,43,-99.99,,,-99.99,WSDL version 423,2013-06-25 17:49:00,
2013-06-25 13:54:00,85.5,61.5,29.26,SW,220,0.8,3.6,46,-99.99,,,-99.99,WSDL version 423,2013-06-25 17:54:00,
2013-06-25 13:59:00,84.6,62.3,29.26,WSW,245,0.9,2.7,48,-99.99,,,-99.99,WSDL version 423,2013-06-25 17:59:00,
2013-06-25 14:04:00,83.9,63.6,29.26,SSW,203,0.0,2.2,52,-99.99,,,-99.99,WSDL version 423,2013-06-25 18:04:00,
2013-06-25 14:09:00,83.5,64.7,29.26,South,190,0.4,2.7,55,-99.99,,,-99.99,WSDL version 423,2013-06-25 18:09:00,
2013-06-25 14:14:00,84.8,67.3,29.26,South,170,0.8,2.7,56,-99.99,,,-99.99,WSDL version 423,2013-06-25 18:14:00,
2013-06-25 14:19:00,86.8,69.2,29.26,WSW,250,0.0,1.6,56,-99.99,,,-99.99,WSDL version 423,2013-06-25 18:19:00,
2013-06-25 14:24:00,88.2,70.2,29.26,SW,215,0.0,1.6,55,-99.99,,,-99.99,WSDL version 423,2013-06-25 18:24:00,
2013-06-25 14:29:00,88.6,69.9,29.26,South,186,1.0,2.0,54,-99.99,,,-99.99,WSDL version 423,2013-06-25 18:29:00,
2013-06-25 14:34:00,87.9,69.3,29.26,SE,129,0.0,2.0,55,-99.99,,,-99.99,WSDL version 423,2013-06-25 18:34:00,
2013-06-25 14:39:00,88.1,69.6,29.26,South,188,0.6,2.7,54,-99.99,,,-99.99,WSDL version 423,2013-06-25 18:39:00,
2013-06-25 14:44:00,88.2,69.9,29.26,SSW,210,0.1,2.7,55,-99.99,,,-99.99,WSDL version 423,2013-06-25 18:44:00,
2013-06-25 14:49:00,88.5,70.2,29.26,SSW,197,0.6,2.5,54,-99.99,,,-99.99,WSDL version 423,2013-06-25 18:49:00,
2013-06-25 14:54:00,88.5,69.8,29.26,SW,225,0.0,2.7,54,-99.99,,,-99.99,WSDL version 423,2013-06-25 18:54:00,
2013-06-25 14:59:00,88.7,70.2,29.26,SW,222,0.0,2.7,54,-99.99,,,-99.99,WSDL version 423,2013-06-25 18:59:00,
2013-06-25 15:04:00,89.5,70.9,29.26,SW,223,0.8,2.5,54,-99.99,,,-99.99,WSDL version 423,2013-06-25 19:04:00,
2013-06-25 15:09:00,90.3,70.6,29.23,South,177,0.0,2.5,52,-99.99,,,-99.99,WSDL version 423,2013-06-25 19:09:00,
2013-06-25 15:14:00,90.7,70.6,29.23,SW,233,0.0,2.2,51,-99.99,,,-99.99,WSDL version 423,2013-06-25 19:14:00,
2013-06-25 15:19:00,91.1,70.5,29.23,South,180,0.0,2.2,51,-99.99,,,-99.99,WSDL version 423,2013-06-25 19:19:00,
2013-06-25 15:24:00,91.3,70.2,29.23,SW,215,0.4,2.7,50,-99.99,,,-99.99,WSDL version 423,2013-06-25 19:24:00,
2013-06-25 15:29:00,91.3,68.6,29.23,South,191,1.1,2.7,47,-99.99,,,-99.99,WSDL version 423,2013-06-25 19:29:00,
2013-06-25 15:34:00,91.2,67.4,29.23,SW,235,1.1,4.5,45,-99.99,,,-99.99,WSDL version 423,2013-06-25 19:34:00,
2013-06-25 15:39:00,91.5,66.8,29.23,South,190,0.1,4.5,45,-99.99,,,-99.99,WSDL version 423,2013-06-25 19:39:00,
2013-06-25 15:44:00,91.0,66.1,29.23,SSW,208,1.5,2.9,44,-99.99,,,-99.99,WSDL version 423,2013-06-25 19:44:00,
2013-06-25 15:49:00,90.3,65.7,29.23,SW,223,1.5,2.7,45,-99.99,,,-99.99,WSDL version 423,2013-06-25 19:49:00,
2013-06-25 15:54:00,89.6,64.7,29.23,SSW,200,0.7,3.1,44,-99.99,,,-99.99,WSDL version 423,2013-06-25 19:54:00,
2013-06-25 15:59:00,88.8,64.5,29.23,SSW,203,1.0,3.1,45,-99.99,,,-99.99,WSDL version 423,2013-06-25 19:59:00,
2013-06-25 16:04:00,88.2,64.3,29.23,SW,223,1.8,2.9,45,-99.99,,,-99.99,WSDL version 423,2013-06-25 20:04:00,
2013-06-25 16:09:00,87.3,64.6,29.23,SW,222,1.5,3.1,48,-99.99,,,-99.99,WSDL version 423,2013-06-25 20:09:00,
2013-06-25 16:14:00,86.3,64.5,29.23,WSW,243,1.2,3.1,49,-99.99,,,-99.99,WSDL version 423,2013-06-25 20:14:00,
2013-06-25 16:19:00,85.4,65.5,29.23,SW,231,1.5,2.5,52,-99.99,,,-99.99,WSDL version 423,2013-06-25 20:19:00,
2013-06-25 16:24:00,84.8,66.3,29.21,SSW,213,0.5,2.5,54,-99.99,,,-99.99,WSDL version 423,2013-06-25 20:24:00,
2013-06-25 16:29:00,84.6,66.8,29.21,SSW,211,0.0,2.5,56,-99.99,,,-99.99,WSDL version 423,2013-06-25 20:29:00,
2013-06-25 16:34:00,84.3,67.1,29.21,SSW,203,0.9,2.5,56,-99.99,,,-99.99,WSDL version 423,2013-06-25 20:34:00,
2013-06-25 16:39:00,84.0,67.1,29.21,SW,228,0.5,2.0,57,-99.99,,,-99.99,WSDL version 423,2013-06-25 20:39:00,
2013-06-25 16:44:00,83.5,66.7,29.21,SSW,211,0.1,2.5,57,-99.99,,,-99.99,WSDL version 423,2013-06-25 20:44:00,
2013-06-25 16:49:00,82.9,65.6,29.21,West,260,1.2,2.5,56,-99.99,,,-99.99,WSDL version 423,2013-06-25 20:49:00,
2013-06-25 16:54:00,82.6,65.4,29.21,SW,214,1.0,3.1,57,-99.99,,,-99.99,WSDL version 423,2013-06-25 20:54:00,
2013-06-25 16:59:00,82.3,66.0,29.21,WSW,245,0.8,3.1,58,-99.99,,,-99.99,WSDL version 423,2013-06-25 20:59:00,
2013-06-25 17:04:00,82.0,66.2,29.21,SW,222,0.5,3.1,59,-99.99,,,-99.99,WSDL version 423,2013-06-25 21:04:00,
2013-06-25 17:09:00,81.5,65.8,29.21,SW,215,0.5,2.5,59,-99.99,,,-99.99,WSDL version 423,2013-06-25 21:09:00,
2013-06-25 17:14:00,81.1,65.5,29.21,SW,233,0.0,1.6,59,-99.99,,,-99.99,WSDL version 423,2013-06-25 21:14:00,
2013-06-25 17:19:00,80.7,65.4,29.21,SW,228,0.0,1.1,60,-99.99,,,-99.99,WSDL version 423,2013-06-25 21:19:00,
2013-06-25 17:24:00,80.6,65.9,29.21,SW,219,0.0,0.9,61,-99.99,,,-99.99,WSDL version 423,2013-06-25 21:24:00,
2013-06-25 17:29:00,80.6,65.9,29.21,SW,225,0.0,1.3,61,-99.99,,,-99.99,WSDL version 423,2013-06-25 21:29:00,
2013-06-25 17:34:00,80.7,66.0,29.21,SW,225,0.0,1.3,61,-99.99,,,-99.99,WSDL version 423,2013-06-25 21:34:00,
2013-06-25 17:39:00,80.3,66.1,29.21,WSW,244,0.0,0.0,62,-99.99,,,-99.99,WSDL version 423,2013-06-25 21:39:00,
2013-06-25 17:44:00,79.8,65.7,29.21,South,180,0.0,0.0,63,-99.99,,,-99.99,WSDL version 423,2013-06-25 21:44:00,
2013-06-25 17:49:00,79.2,65.6,29.21,SW,223,0.0,0.0,63,-99.99,,,-99.99,WSDL version 423,2013-06-25 21:49:00,
2013-06-25 17:54:00,78.8,65.1,29.21,SW,214,0.0,1.1,63,-99.99,,,-99.99,WSDL version 423,2013-06-25 21:54:00,
2013-06-25 17:59:00,78.4,65.5,29.21,SW,225,0.0,1.1,65,-99.99,,,-99.99,WSDL version 423,2013-06-25 21:59:00,
2013-06-25 18:04:00,78.0,65.5,29.21,SW,225,0.0,2.0,66,-99.99,,,-99.99,WSDL version 423,2013-06-25 22:04:00,
2013-06-25 18:09:00,77.8,65.6,29.23,WSW,248,0.0,2.0,67,-99.99,,,-99.99,WSDL version 423,2013-06-25 22:09:00,
2013-06-25 18:14:00,77.5,65.6,29.23,NNW,338,0.0,1.3,67,-99.99,,,-99.99,WSDL version 423,2013-06-25 22:14:00,
2013-06-25 18:19:00,77.1,65.4,29.23,SW,214,0.0,1.3,67,-99.99,,,-99.99,WSDL version 423,2013-06-25 22:19:00,
2013-06-25 18:24:00,77.0,65.4,29.23,WNW,298,0.0,0.0,67,-99.99,,,-99.99,WSDL version 423,2013-06-25 22:24:00,
2013-06-25 18:29:00,77.0,65.6,29.23,SE,129,0.0,0.0,68,-99.99,,,-99.99,WSDL version 423,2013-06-25 22:29:00,
2013-06-25 18:34:00,77.0,66.0,29.23,South,180,0.0,0.0,69,-99.99,,,-99.99,WSDL version 423,2013-06-25 22:34:00,
2013-06-25 18:39:00,76.9,66.2,29.23,South,180,0.0,0.0,70,-99.99,,,-99.99,WSDL version 423,2013-06-25 22:39:00,
2013-06-25 18:44:00,76.6,66.0,29.23,ESE,123,0.4,2.7,70,-99.99,,,-99.99,WSDL version 423,2013-06-25 22:44:00,
2013-06-25 18:49:00,76.5,66.2,29.23,WSW,248,0.0,2.7,71,-99.99,,,-99.99,WSDL version 423,2013-06-25 22:49:00,
2013-06-25 18:54:00,76.4,66.1,29.23,NW,315,0.0,1.1,71,-99.99,,,-99.99,WSDL version 423,2013-06-25 22:54:00,
2013-06-25 18:59:00,76.3,66.3,29.23,NW,315,0.0,1.1,72,-99.99,,,-99.99,WSDL version 423,2013-06-25 22:59:00,
2013-06-25 19:04:00,76.2,66.5,29.23,NW,315,0.0,0.0,72,-99.99,,,-99.99,WSDL version 423,2013-06-25 23:04:00,
2013-06-25 19:09:00,76.1,66.4,29.23,ESE,123,0.0,0.0,72,-99.99,,,-99.99,WSDL version 423,2013-06-25 23:09:00,
2013-06-25 19:14:00,76.1,66.6,29.23,SSE,155,0.0,0.9,73,-99.99,,,-99.99,WSDL version 423,2013-06-25 23:14:00,
2013-06-25 19:19:00,76.2,67.0,29.23,South,180,0.0,0.9,73,-99.99,,,-99.99,WSDL version 423,2013-06-25 23:19:00,
2013-06-25 19:24:00,76.4,67.1,29.23,South,180,0.0,2.0,73,-99.99,,,-99.99,WSDL version 423,2013-06-25 23:24:00,
2013-06-25 19:29:00,76.4,67.1,29.23,East,90,0.0,2.0,73,-99.99,,,-99.99,WSDL version 423,2013-06-25 23:29:00,
2013-06-25 19:34:00,76.3,67.0,29.23,ESE,108,0.0,1.3,73,-99.99,,,-99.99,WSDL version 423,2013-06-25 23:34:00,
2013-06-25 19:39:00,76.1,66.9,29.23,NNW,346,0.0,1.3,73,-99.99,,,-99.99,WSDL version 423,2013-06-25 23:39:00,
2013-06-25 19:44:00,75.9,66.6,29.23,NW,323,0.0,1.1,73,-99.99,,,-99.99,WSDL version 423,2013-06-25 23:44:00,
2013-06-25 19:49:00,75.6,66.5,29.23,NNW,332,0.1,2.5,74,-99.99,,,-99.99,WSDL version 423,2013-06-25 23:49:00,
2013-06-25 19:54:00,75.3,66.8,29.23,WNW,295,0.9,2.5,75,-99.99,,,-99.99,WSDL version 423,2013-06-25 23:54:00,
2013-06-25 19:59:00,75.1,67.0,29.23,West,270,0.0,2.0,77,-99.99,,,-99.99,WSDL version 423,2013-06-25 23:59:00,
2013-06-25 20:04:00,74.9,67.1,29.23,ESE,103,0.0,0.9,77,-99.99,,,-99.99,WSDL version 423,2013-06-26 00:04:00,
2013-06-25 20:09:00,74.6,66.9,29.18,SE,138,0.5,2.0,77,-99.99,,,-99.99,WSDL version 423,2013-06-26 00:09:00,
2013-06-25 20:14:00,74.4,66.7,29.18,West,270,0.0,2.0,77,-99.99,,,-99.99,WSDL version 423,2013-06-26 00:14:00,
2013-06-25 20:19:00,74.2,66.8,29.18,WSW,248,0.0,0.0,78,-99.99,,,-99.99,WSDL version 423,2013-06-26 00:19:00,
2013-06-25 20:24:00,74.1,66.8,29.21,SSW,208,0.0,0.0,78,-99.99,,,-99.99,WSDL version 423,2013-06-26 00:24:00,
2013-06-25 20:29:00,73.9,66.7,29.21,ENE,63,0.0,1.1,79,-99.99,,,-99.99,WSDL version 423,2013-06-26 00:29:00,
2013-06-25 20:34:00,73.6,66.7,29.21,SE,141,0.0,1.1,79,-99.99,,,-99.99,WSDL version 423,2013-06-26 00:34:00,
2013-06-25 20:39:00,73.4,66.7,29.21,WSW,248,0.0,0.9,79,-99.99,,,-99.99,WSDL version 423,2013-06-26 00:39:00,
2013-06-25 20:44:00,73.2,66.7,29.21,WSW,248,0.0,0.0,81,-99.99,,,-99.99,WSDL version 423,2013-06-26 00:44:00,
2013-06-25 20:49:00,73.0,66.9,29.21,WSW,248,0.0,0.0,81,-99.99,,,-99.99,WSDL version 423,2013-06-26 00:49:00,
2013-06-25 20:54:00,72.9,66.7,29.21,SW,225,0.0,0.0,81,-99.99,,,-99.99,WSDL version 423,2013-06-26 00:54:00,
2013-06-25 20:59:00,72.7,66.9,29.21,WSW,248,0.0,0.0,82,-99.99,,,-99.99,WSDL version 423,2013-06-26 00:59:00,
2013-06-25 21:04:00,72.6,67.0,29.21,SSW,210,0.0,0.0,83,-99.99,,,-99.99,WSDL version 423,2013-06-26 01:04:00,
2013-06-25 21:09:00,72.4,66.9,29.21,WSW,248,0.0,0.0,83,-99.99,,,-99.99,WSDL version 423,2013-06-26 01:09:00,
2013-06-25 21:14:00,72.1,67.1,29.21,WSW,248,0.0,0.0,84,-99.99,,,-99.99,WSDL version 423,2013-06-26 01:14:00,
2013-06-25 21:19:00,72.0,67.1,29.21,WSW,248,0.0,0.0,86,-99.99,,,-99.99,WSDL version 423,2013-06-26 01:19:00,
2013-06-25 21:24:00,71.8,67.1,29.21,SSW,203,0.0,0.0,86,-99.99,,,-99.99,WSDL version 423,2013-06-26 01:24:00,
2013-06-25 21:29:00,71.6,67.1,29.21,SSW,203,0.0,0.0,86,-99.99,,,-99.99,WSDL version 423,2013-06-26 01:29:00,
2013-06-25 21:34:00,71.5,67.2,29.21,SSW,203,0.0,0.0,87,-99.99,,,-99.99,WSDL version 423,2013-06-26 01:34:00,
2013-06-25 21:39:00,71.2,67.3,29.21,SSW,203,0.0,0.0,88,-99.99,,,-99.99,WSDL version 423,2013-06-26 01:39:00,
2013-06-25 21:44:00,70.9,67.1,29.21,SSW,203,0.0,0.0,88,-99.99,,,-99.99,WSDL version 423,2013-06-26 01:44:00,
2013-06-25 21:49:00,70.6,67.0,29.21,SSW,203,0.0,0.0,89,-99.99,,,-99.99,WSDL version 423,2013-06-26 01:49:00,
2013-06-25 21:54:00,70.5,67.1,29.23,SSW,203,0.0,0.0,89,-99.99,,,-99.99,WSDL version 423,2013-06-26 01:54:00,
2013-06-25 22:04:00,70.1,67.0,29.23,SSW,203,0.0,0.0,90,-99.99,,,-99.99,WSDL version 423,2013-06-26 02:04:00,
2013-06-25 22:09:00,69.9,66.9,29.23,SSW,203,0.0,0.0,91,-99.99,,,-99.99,WSDL version 423,2013-06-26 02:09:00,
2013-06-25 22:14:00,69.7,66.9,29.23,SSW,203,0.0,0.0,91,-99.99,,,-99.99,WSDL version 423,2013-06-26 02:14:00,
2013-06-25 22:19:00,69.4,67.1,29.23,SSW,203,0.0,0.0,92,-99.99,,,-99.99,WSDL version 423,2013-06-26 02:19:00,
2013-06-25 22:24:00,69.3,67.1,29.23,SSW,203,0.0,0.0,93,-99.99,,,-99.99,WSDL version 423,2013-06-26 02:24:00,
2013-06-25 22:29:00,69.2,67.2,29.23,SSW,203,0.0,0.0,93,-99.99,,,-99.99,WSDL version 423,2013-06-26 02:29:00,
2013-06-25 22:34:00,69.1,67.1,29.23,South,191,0.0,0.0,93,-99.99,,,-99.99,WSDL version 423,2013-06-26 02:34:00,
2013-06-25 22:39:00,68.9,67.1,29.23,ESE,113,0.0,0.0,94,-99.99,,,-99.99,WSDL version 423,2013-06-26 02:39:00,
2013-06-25 22:44:00,68.8,67.1,29.23,ESE,113,0.0,0.0,94,-99.99,,,-99.99,WSDL version 423,2013-06-26 02:44:00,
2013-06-25 22:49:00,68.7,67.1,29.23,ESE,113,0.0,0.0,94,-99.99,,,-99.99,WSDL version 423,2013-06-26 02:49:00,
2013-06-25 22:54:00,68.5,66.9,29.23,ESE,113,0.0,0.0,96,-99.99,,,-99.99,WSDL version 423,2013-06-26 02:54:00,
2013-06-25 22:59:00,68.3,67.0,29.23,ESE,113,0.0,0.0,96,-99.99,,,-99.99,WSDL version 423,2013-06-26 02:59:00,
2013-06-25 23:04:00,68.2,66.9,29.23,ESE,113,0.0,0.0,96,-99.99,,,-99.99,WSDL version 423,2013-06-26 03:04:00,
2013-06-25 23:09:00,68.0,66.7,29.23,East,90,0.0,0.0,97,-99.99,,,-99.99,WSDL version 423,2013-06-26 03:09:00,
2013-06-25 23:14:00,68.0,67.0,29.23,NE,45,0.0,0.0,97,-99.99,,,-99.99,WSDL version 423,2013-06-26 03:14:00,
2013-06-25 23:19:00,67.8,67.2,29.23,NE,45,0.0,0.0,98,-99.99,,,-99.99,WSDL version 423,2013-06-26 03:19:00,
2013-06-25 23:24:00,67.8,67.2,29.23,NE,45,0.0,0.0,98,-99.99,,,-99.99,WSDL version 423,2013-06-26 03:24:00,
2013-06-25 23:29:00,68.0,67.3,29.23,NW,315,0.0,0.0,98,-99.99,,,-99.99,WSDL version 423,2013-06-26 03:29:00,
2013-06-25 23:34:00,68.0,67.6,29.23,NW,315,0.0,0.0,99,-99.99,,,-99.99,WSDL version 423,2013-06-26 03:34:00,
2013-06-25 23:39:00,68.0,67.7,29.23,NW,315,0.0,0.0,99,-99.99,,,-99.99,WSDL version 423,2013-06-26 03:39:00,
2013-06-25 23:44:00,68.1,67.8,29.23,NW,315,0.0,0.0,99,-99.99,,,-99.99,WSDL version 423,2013-06-26 03:44:00,
2013-06-25 23:49:00,68.2,67.9,29.23,South,173,0.0,0.0,99,-99.99,,,-99.99,WSDL version 423,2013-06-26 03:49:00,
2013-06-25 23:54:00,68.2,67.9,29.23,SW,225,0.0,0.0,99,-99.99,,,-99.99,WSDL version 423,2013-06-26 03:54:00,
2013-06-25 23:59:00,68.0,67.7,29.23,SW,225,0.0,0.0,99,-99.99,,,-99.99,WSDL version 423,2013-06-26 03:59:00,